iso_date,epoch_date,Year,Hour,Min,DOY,POS_DOY,Lat,Lon,BP,Ts,Ta,has_bp,has_ts,has_ta,BuoyID,Buoy_Type,Buoy_Owner,Logistics,Hemisphere
2021-09-05T10:59:57Z,1630839597,2021,11,0,248.4583,248.4583,74.30239,-20.25112,1008.4,-999.00,-999.0,yes,no,no,300534061610450,ITB-19,USIABP,HDMS_Triton,North
2021-09-05T12:00:00Z,1630843200,2021,12,0,248.5,248.5,74.3024,-20.2509,1008.2,-999.00,-999.0,yes,no,no,300534061610450,ITB-19,USIABP,HDMS_Triton,North
2021-09-05T13:00:02Z,1630846803,2021,13,0,248.5417,248.5417,74.30227,-20.251,1008.0,-999.00,-999.0,yes,no,no,300534061610450,ITB-19,USIABP,HDMS_Triton,North
2021-09-05T13:59:57Z,1630850397,2021,14,0,248.5833,248.5833,74.30244,-20.25121,1007.5,-999.00,-999.0,yes,no,no,300534061610450,ITB-19,USIABP,HDMS_Triton,North
2021-09-05T15:00:00Z,1630854000,2021,15,0,248.625,248.625,74.2385,-20.22705,1007.2,-999.00,-999.0,yes,no,no,300534061610450,ITB-19,USIABP,HDMS_Triton,North
2021-09-05T16:00:02Z,1630857603,2021,16,0,248.6667,248.6667,74.20807,-19.29564,1006.8,-999.00,-999.0,yes,no,no,300534061610450,ITB-19,USIABP,HDMS_Triton,North
2021-09-05T16:59:57Z,1630861197,2021,17,0,248.7083,248.7083,74.41581,-18.72538,1006.7,-999.00,-999.0,yes,no,no,300534061610450,ITB-19,USIABP,HDMS_Triton,North
2021-09-05T18:00:00Z,1630864800,2021,18,0,248.75,248.75,74.62761,-18.15627,1006.8,-999.00,-999.0,yes,no,no,300534061610450,ITB-19,USIABP,HDMS_Triton,North
2021-09-05T19:00:02Z,1630868403,2021,19,0,248.7917,248.7917,74.81492,-18.37179,1006.7,-999.00,-999.0,yes,no,no,300534061610450,ITB-19,USIABP,HDMS_Triton,North
2021-09-05T19:59:57Z,1630871997,2021,20,0,248.8333,248.8333,74.98426,-19.20871,1006.8,-999.00,-999.0,yes,no,no,300534061610450,ITB-19,USIABP,HDMS_Triton,North
2021-09-05T21:00:00Z,1630875600,2021,21,0,248.875,248.875,75.23748,-19.19666,1006.9,-999.00,-999.0,yes,no,no,300534061610450,ITB-19,USIABP,HDMS_Triton,North
2021-09-05T22:00:02Z,1630879203,2021,22,0,248.9167,248.9167,75.49414,-19.11395,1006.4,-999.00,-999.0,yes,no,no,300534061610450,ITB-19,USIABP,HDMS_Triton,North
2021-09-05T22:59:57Z,1630882797,2021,23,0,248.9583,248.9583,75.74782,-18.97959,1006.3,-999.00,-999.0,yes,no,no,300534061610450,ITB-19,USIABP,HDMS_Triton,North
2021-09-06T00:00:00Z,1630886400,2021,0,0,249.0,249.0,76.00649,-19.25006,1006.1,-999.00,-999.0,yes,no,no,300534061610450,ITB-19,USIABP,HDMS_Triton,North
2021-09-06T01:00:02Z,1630890003,2021,1,0,249.0417,249.0417,76.25846,-19.48558,1006.8,-999.00,-999.0,yes,no,no,300534061610450,ITB-19,USIABP,HDMS_Triton,North
2021-09-06T01:59:57Z,1630893597,2021,2,0,249.0833,249.0833,76.51707,-19.51679,1006.8,-999.00,-999.0,yes,no,no,300534061610450,ITB-19,USIABP,HDMS_Triton,North
2021-09-06T03:00:00Z,1630897200,2021,3,0,249.125,249.125,76.74279,-19.3772,1006.5,-999.00,-999.0,yes,no,no,300534061610450,ITB-19,USIABP,HDMS_Triton,North
2021-09-06T04:00:02Z,1630900803,2021,4,0,249.1667,249.1667,76.73472,-18.83929,1006.5,-999.00,-999.0,yes,no,no,300534061610450,ITB-19,USIABP,HDMS_Triton,North
2021-09-06T04:59:57Z,1630904397,2021,5,0,249.2083,249.2083,76.68042,-18.61108,1006.3,-999.00,-999.0,yes,no,no,300534061610450,ITB-19,USIABP,HDMS_Triton,North
2021-09-06T06:00:00Z,1630908000,2021,6,0,249.25,249.25,76.61663,-18.06737,1005.9,-999.00,-999.0,yes,no,no,300534061610450,ITB-19,USIABP,HDMS_Triton,North
2021-09-06T07:00:02Z,1630911603,2021,7,0,249.2917,249.2917,76.69641,-17.76635,1005.8,-999.00,-999.0,yes,no,no,300534061610450,ITB-19,USIABP,HDMS_Triton,North
2021-09-06T07:59:57Z,1630915197,2021,8,0,249.3333,249.3333,76.94221,-17.66219,1006.1,-999.00,-999.0,yes,no,no,300534061610450,ITB-19,USIABP,HDMS_Triton,North
2021-09-06T09:00:00Z,1630918800,2021,9,0,249.375,249.375,77.18878,-17.44272,1006.0,-999.00,-999.0,yes,no,no,300534061610450,ITB-19,USIABP,HDMS_Triton,North
2021-09-06T10:00:02Z,1630922403,2021,10,0,249.4167,249.4167,77.38321,-17.26967,1006.2,-999.00,-999.0,yes,no,no,300534061610450,ITB-19,USIABP,HDMS_Triton,North
2021-09-06T10:59:57Z,1630925997,2021,11,0,249.4583,249.4583,77.58009,-17.10901,1005.9,-999.00,-999.0,yes,no,no,300534061610450,ITB-19,USIABP,HDMS_Triton,North
2021-09-06T12:00:00Z,1630929600,2021,12,0,249.5,249.5,77.77286,-16.86516,1005.8,-999.00,-999.0,yes,no,no,300534061610450,ITB-19,USIABP,HDMS_Triton,North
2021-09-06T13:00:02Z,1630933203,2021,13,0,249.5417,249.5417,77.96407,-16.6018,1005.6,-999.00,-999.0,yes,no,no,300534061610450,ITB-19,USIABP,HDMS_Triton,North
2021-09-06T13:59:57Z,1630936797,2021,14,0,249.5833,249.5833,78.13274,-16.36943,1005.8,-999.00,-999.0,yes,no,no,300534061610450,ITB-19,USIABP,HDMS_Triton,North
2021-09-06T15:00:00Z,1630940400,2021,15,0,249.625,249.625,78.13492,-16.37699,1005.5,-999.00,-999.0,yes,no,no,300534061610450,ITB-19,USIABP,HDMS_Triton,North
2021-09-06T16:00:02Z,1630944003,2021,16,0,249.6667,249.6667,78.28585,-16.16709,1005.8,-999.00,-999.0,yes,no,no,300534061610450,ITB-19,USIABP,HDMS_Triton,North
2021-09-06T16:59:57Z,1630947597,2021,17,0,249.7083,249.7083,78.17743,-16.34111,1005.1,-999.00,-999.0,yes,no,no,300534061610450,ITB-19,USIABP,HDMS_Triton,North
2021-09-06T18:00:00Z,1630951200,2021,18,0,249.75,249.75,78.26711,-16.18416,1005.3,-999.00,-999.0,yes,no,no,300534061610450,ITB-19,USIABP,HDMS_Triton,North
2021-09-06T19:00:02Z,1630954803,2021,19,0,249.7917,249.7917,78.34097,-16.05304,1005.0,-999.00,-999.0,yes,no,no,300534061610450,ITB-19,USIABP,HDMS_Triton,North
2021-09-06T19:59:57Z,1630958397,2021,20,0,249.8333,249.8333,78.27578,-16.18521,1005.1,-999.00,-999.0,yes,no,no,300534061610450,ITB-19,USIABP,HDMS_Triton,North
2021-09-06T21:00:00Z,1630962000,2021,21,0,249.875,249.875,78.39728,-15.96483,1005.0,-999.00,-999.0,yes,no,no,300534061610450,ITB-19,USIABP,HDMS_Triton,North
2021-09-06T22:00:02Z,1630965603,2021,22,0,249.9167,249.9167,78.53368,-15.91043,1005.1,-999.00,-999.0,yes,no,no,300534061610450,ITB-19,USIABP,HDMS_Triton,North
2021-09-06T22:59:57Z,1630969197,2021,23,0,249.9583,249.9583,78.67852,-15.95926,1005.2,-999.00,-999.0,yes,no,no,300534061610450,ITB-19,USIABP,HDMS_Triton,North
2021-09-07T00:00:00Z,1630972800,2021,0,0,250.0,250.0,78.81958,-16.05511,1005.4,-999.00,-999.0,yes,no,no,300534061610450,ITB-19,USIABP,HDMS_Triton,North
2021-09-07T01:00:02Z,1630976403,2021,1,0,250.0417,250.0417,78.91183,-16.12378,1005.5,-999.00,-999.0,yes,no,no,300534061610450,ITB-19,USIABP,HDMS_Triton,North
2021-09-07T01:59:57Z,1630979997,2021,2,0,250.0833,250.0833,78.95347,-16.14584,1005.6,-999.00,-999.0,yes,no,no,300534061610450,ITB-19,USIABP,HDMS_Triton,North
2021-09-07T03:00:00Z,1630983600,2021,3,0,250.125,250.125,78.85632,-16.08347,1005.4,-999.00,-999.0,yes,no,no,300534061610450,ITB-19,USIABP,HDMS_Triton,North
2021-09-07T04:00:02Z,1630987203,2021,4,0,250.1667,250.1667,78.75664,-16.01089,1005.1,-999.00,-999.0,yes,no,no,300534061610450,ITB-19,USIABP,HDMS_Triton,North
2021-09-07T04:59:57Z,1630990797,2021,5,0,250.2083,250.2083,78.82632,-16.05989,1004.7,-999.00,-999.0,yes,no,no,300534061610450,ITB-19,USIABP,HDMS_Triton,North
2021-09-07T06:00:00Z,1630994400,2021,6,0,250.25,250.25,78.78859,-16.02862,1004.9,-999.00,-999.0,yes,no,no,300534061610450,ITB-19,USIABP,HDMS_Triton,North
2021-09-07T07:00:02Z,1630998003,2021,7,0,250.2917,250.2917,78.78777,-16.0287,1004.4,-999.00,-999.0,yes,no,no,300534061610450,ITB-19,USIABP,HDMS_Triton,North
2021-09-07T07:59:57Z,1631001597,2021,8,0,250.3333,250.3333,78.8653,-16.06813,1004.2,-999.00,-999.0,yes,no,no,300534061610450,ITB-19,USIABP,HDMS_Triton,North
2021-09-07T09:00:00Z,1631005200,2021,9,0,250.375,250.375,78.728,-15.98321,1004.3,-999.00,-999.0,yes,no,no,300534061610450,ITB-19,USIABP,HDMS_Triton,North
2021-09-07T10:00:02Z,1631008803,2021,10,0,250.4167,250.4167,78.58384,-15.8551,1003.3,-999.00,-999.0,yes,no,no,300534061610450,ITB-19,USIABP,HDMS_Triton,North
2021-09-07T10:59:57Z,1631012397,2021,11,0,250.4583,250.4583,78.63575,-16.25572,1003.0,-999.00,-999.0,yes,no,no,300534061610450,ITB-19,USIABP,HDMS_Triton,North
2021-09-07T12:00:00Z,1631016000,2021,12,0,250.5,250.5,78.6999,-16.80849,1003.4,-999.00,-999.0,yes,no,no,300534061610450,ITB-19,USIABP,HDMS_Triton,North
2021-09-07T13:00:02Z,1631019603,2021,13,0,250.5417,250.5417,78.7037,-16.54194,1002.9,-999.00,-999.0,yes,no,no,300534061610450,ITB-19,USIABP,HDMS_Triton,North
2021-09-07T13:59:57Z,1631023197,2021,14,0,250.5833,250.5833,78.85782,-16.7919,1003.6,-999.00,-999.0,yes,no,no,300534061610450,ITB-19,USIABP,HDMS_Triton,North
2021-09-07T15:00:00Z,1631026800,2021,15,0,250.625,250.625,78.97003,-16.70063,1003.4,-999.00,-999.0,yes,no,no,300534061610450,ITB-19,USIABP,HDMS_Triton,North
2021-09-07T16:00:02Z,1631030403,2021,16,0,250.6667,250.6667,79.12406,-16.55952,1003.2,-999.00,-999.0,yes,no,no,300534061610450,ITB-19,USIABP,HDMS_Triton,North
2021-09-07T16:59:57Z,1631033997,2021,17,0,250.7083,250.7083,79.28002,-16.79766,1003.4,-999.00,-999.0,yes,no,no,300534061610450,ITB-19,USIABP,HDMS_Triton,North
2021-09-07T18:00:00Z,1631037600,2021,18,0,250.75,250.75,79.43263,-16.83998,1004.3,-999.00,-999.0,yes,no,no,300534061610450,ITB-19,USIABP,HDMS_Triton,North
2021-09-07T19:00:02Z,1631041203,2021,19,0,250.7917,250.7917,79.58902,-16.84164,1004.6,-999.00,-999.0,yes,no,no,300534061610450,ITB-19,USIABP,HDMS_Triton,North
2021-09-07T19:59:57Z,1631044797,2021,20,0,250.8333,250.8333,79.66775,-16.87001,1005.1,-999.00,-999.0,yes,no,no,300534061610450,ITB-19,USIABP,HDMS_Triton,North
2021-09-07T21:00:00Z,1631048400,2021,21,0,250.875,250.875,79.64832,-17.28873,1005.4,-999.00,-999.0,yes,no,no,300534061610450,ITB-19,USIABP,HDMS_Triton,North
2021-09-07T22:00:02Z,1631052003,2021,22,0,250.9167,250.9167,79.58196,-18.16051,1005.4,-999.00,-999.0,yes,no,no,300534061610450,ITB-19,USIABP,HDMS_Triton,North
2021-09-07T22:59:57Z,1631055597,2021,23,0,250.9583,250.9583,79.56446,-18.9258,1005.9,-999.00,-999.0,yes,no,no,300534061610450,ITB-19,USIABP,HDMS_Triton,North
2021-09-08T00:00:00Z,1631059200,2021,0,0,251.0,251.0,79.58368,-19.30262,1006.2,-999.00,-999.0,yes,no,no,300534061610450,ITB-19,USIABP,HDMS_Triton,North
2021-09-08T01:00:02Z,1631062803,2021,1,0,251.0417,251.0417,79.55975,-18.77297,1006.0,-999.00,-999.0,yes,no,no,300534061610450,ITB-19,USIABP,HDMS_Triton,North
2021-09-08T01:59:57Z,1631066397,2021,2,0,251.0833,251.0833,79.56988,-18.23002,1005.7,-999.00,-999.0,yes,no,no,300534061610450,ITB-19,USIABP,HDMS_Triton,North
2021-09-08T03:00:00Z,1631070000,2021,3,0,251.125,251.125,79.61297,-17.48638,1006.4,-999.00,-999.0,yes,no,no,300534061610450,ITB-19,USIABP,HDMS_Triton,North
2021-09-08T04:00:02Z,1631073603,2021,4,0,251.1667,251.1667,79.60682,-16.81094,1006.8,-999.00,-999.0,yes,no,no,300534061610450,ITB-19,USIABP,HDMS_Triton,North
2021-09-08T04:59:57Z,1631077197,2021,5,0,251.2083,251.2083,79.50287,-17.01893,1006.5,-999.00,-999.0,yes,no,no,300534061610450,ITB-19,USIABP,HDMS_Triton,North
2021-09-08T06:00:00Z,1631080800,2021,6,0,251.25,251.25,79.63416,-16.97597,1007.0,-999.00,-999.0,yes,no,no,300534061610450,ITB-19,USIABP,HDMS_Triton,North
2021-09-08T07:00:02Z,1631084403,2021,7,0,251.2917,251.2917,79.60299,-17.04377,1007.4,-999.00,-999.0,yes,no,no,300534061610450,ITB-19,USIABP,HDMS_Triton,North
2021-09-08T07:59:57Z,1631087997,2021,8,0,251.3333,251.3333,79.67892,-16.95707,1008.1,-999.00,-999.0,yes,no,no,300534061610450,ITB-19,USIABP,HDMS_Triton,North
2021-09-08T09:00:00Z,1631091600,2021,9,0,251.375,251.375,79.67177,-16.94797,1008.7,-999.00,-999.0,yes,no,no,300534061610450,ITB-19,USIABP,HDMS_Triton,North
2021-09-08T10:00:02Z,1631095203,2021,10,0,251.4167,251.4167,79.66663,-16.9081,1008.9,-999.00,-999.0,yes,no,no,300534061610450,ITB-19,USIABP,HDMS_Triton,North
2021-09-08T10:59:57Z,1631098797,2021,11,0,251.4583,251.4583,79.66972,-16.90909,1009.3,-999.00,-999.0,yes,no,no,300534061610450,ITB-19,USIABP,HDMS_Triton,North
2021-09-08T12:00:00Z,1631102400,2021,12,0,251.5,251.5,79.61389,-17.70128,1009.8,-999.00,-999.0,yes,no,no,300534061610450,ITB-19,USIABP,HDMS_Triton,North
2021-09-08T13:00:02Z,1631106003,2021,13,0,251.5417,251.5417,79.57161,-18.60849,1010.0,-999.00,-999.0,yes,no,no,300534061610450,ITB-19,USIABP,HDMS_Triton,North
2021-09-08T13:59:57Z,1631109597,2021,14,0,251.5833,251.5833,79.54793,-19.41685,1010.5,-999.00,-999.0,yes,no,no,300534061610450,ITB-19,USIABP,HDMS_Triton,North
2021-09-08T15:00:00Z,1631113200,2021,15,0,251.625,251.625,79.56672,-19.46714,1010.9,-999.00,-999.0,yes,no,no,300534061610450,ITB-19,USIABP,HDMS_Triton,North
2021-09-08T16:00:02Z,1631116803,2021,16,0,251.6667,251.6667,79.56511,-19.47032,1011.0,-999.00,-999.0,yes,no,no,300534061610450,ITB-19,USIABP,HDMS_Triton,North
2021-09-08T16:59:57Z,1631120397,2021,17,0,251.7083,251.7083,79.56158,-19.46246,1011.4,-999.00,-999.0,yes,no,no,300534061610450,ITB-19,USIABP,HDMS_Triton,North
2021-09-08T18:00:00Z,1631124000,2021,18,0,251.75,251.75,79.60281,-19.32266,1011.6,-999.00,-999.0,yes,no,no,300534061610450,ITB-19,USIABP,HDMS_Triton,North
2021-09-08T19:00:02Z,1631127603,2021,19,0,251.7917,251.7917,79.64203,-19.05164,1011.9,-999.00,-999.0,yes,no,no,300534061610450,ITB-19,USIABP,HDMS_Triton,North
2021-09-08T19:59:57Z,1631131197,2021,20,0,251.8333,251.8333,79.6371,-18.75657,1012.0,-999.00,-999.0,yes,no,no,300534061610450,ITB-19,USIABP,HDMS_Triton,North
2021-09-08T21:00:00Z,1631134800,2021,21,0,251.875,251.875,79.59301,-18.02087,1012.2,-999.00,-999.0,yes,no,no,300534061610450,ITB-19,USIABP,HDMS_Triton,North
2021-09-08T22:00:02Z,1631138403,2021,22,0,251.9167,251.9167,79.6636,-17.0638,1011.9,-999.00,-999.0,yes,no,no,300534061610450,ITB-19,USIABP,HDMS_Triton,North
2021-09-08T22:59:57Z,1631141997,2021,23,0,251.9583,251.9583,79.48284,-16.89953,1012.2,-999.00,-999.0,yes,no,no,300534061610450,ITB-19,USIABP,HDMS_Triton,North
2021-09-09T00:00:00Z,1631145600,2021,0,0,252.0,252.0,79.38135,-17.07413,1012.1,-999.00,-999.0,yes,no,no,300534061610450,ITB-19,USIABP,HDMS_Triton,North
2021-09-09T01:00:02Z,1631149203,2021,1,0,252.0417,252.0417,79.29584,-17.00401,1012.2,-999.00,-999.0,yes,no,no,300534061610450,ITB-19,USIABP,HDMS_Triton,North
2021-09-09T01:59:57Z,1631152797,2021,2,0,252.0833,252.0833,79.17694,-16.63123,1012.5,-999.00,-999.0,yes,no,no,300534061610450,ITB-19,USIABP,HDMS_Triton,North
2021-09-09T03:00:00Z,1631156400,2021,3,0,252.125,252.125,78.97799,-16.74198,1012.3,-999.00,-999.0,yes,no,no,300534061610450,ITB-19,USIABP,HDMS_Triton,North
2021-09-09T04:00:02Z,1631160003,2021,4,0,252.1667,252.1667,78.78059,-16.7665,1011.9,-999.00,-999.0,yes,no,no,300534061610450,ITB-19,USIABP,HDMS_Triton,North
2021-09-09T04:59:57Z,1631163597,2021,5,0,252.2083,252.2083,78.65196,-16.20395,1011.2,-999.00,-999.0,yes,no,no,300534061610450,ITB-19,USIABP,HDMS_Triton,North
2021-09-09T06:00:00Z,1631167200,2021,6,0,252.25,252.25,78.49437,-15.90489,1011.0,-999.00,-999.0,yes,no,no,300534061610450,ITB-19,USIABP,HDMS_Triton,North
2021-09-09T07:00:02Z,1631170803,2021,7,0,252.2917,252.2917,78.31839,-16.13608,1011.0,-999.00,-999.0,yes,no,no,300534061610450,ITB-19,USIABP,HDMS_Triton,North
2021-09-09T07:59:57Z,1631174397,2021,8,0,252.3333,252.3333,78.14235,-16.4401,1011.1,-999.00,-999.0,yes,no,no,300534061610450,ITB-19,USIABP,HDMS_Triton,North
2021-09-09T09:00:00Z,1631178000,2021,9,0,252.375,252.375,77.96963,-16.71058,1010.8,-999.00,-999.0,yes,no,no,300534061610450,ITB-19,USIABP,HDMS_Triton,North
2021-09-09T10:00:02Z,1631181603,2021,10,0,252.4167,252.4167,77.82314,-16.85624,1010.5,-999.00,-999.0,yes,no,no,300534061610450,ITB-19,USIABP,HDMS_Triton,North
2021-09-09T10:59:57Z,1631185197,2021,11,0,252.4583,252.4583,77.97791,-16.66396,1010.7,-999.00,-999.0,yes,no,no,300534061610450,ITB-19,USIABP,HDMS_Triton,North
2021-09-09T12:00:00Z,1631188800,2021,12,0,252.5,252.5,78.16168,-16.38344,1010.7,-999.00,-999.0,yes,no,no,300534061610450,ITB-19,USIABP,HDMS_Triton,North
2021-09-09T13:00:02Z,1631192403,2021,13,0,252.5417,252.5417,78.36558,-16.03687,1011.5,-999.00,-999.0,yes,no,no,300534061610450,ITB-19,USIABP,HDMS_Triton,North
2021-09-09T13:59:57Z,1631195997,2021,14,0,252.5833,252.5833,78.50219,-16.09579,1011.4,-999.00,-999.0,yes,no,no,300534061610450,ITB-19,USIABP,HDMS_Triton,North
2021-09-09T15:00:00Z,1631199600,2021,15,0,252.625,252.625,78.70078,-16.37621,1012.8,-999.00,-999.0,yes,no,no,300534061610450,ITB-19,USIABP,HDMS_Triton,North
2021-09-09T16:00:02Z,1631203203,2021,16,0,252.6667,252.6667,78.81034,-16.65706,1013.3,-999.00,-999.0,yes,no,no,300534061610450,ITB-19,USIABP,HDMS_Triton,North
2021-09-09T16:59:57Z,1631206797,2021,17,0,252.7083,252.7083,78.81122,-16.38043,1013.3,-999.00,-999.0,yes,no,no,300534061610450,ITB-19,USIABP,HDMS_Triton,North
2021-09-09T18:00:00Z,1631210400,2021,18,0,252.75,252.75,78.67753,-16.33154,1013.5,-999.00,-999.0,yes,no,no,300534061610450,ITB-19,USIABP,HDMS_Triton,North
2021-09-09T19:00:02Z,1631214003,2021,19,0,252.7917,252.7917,78.47291,-15.912,1013.4,-999.00,-999.0,yes,no,no,300534061610450,ITB-19,USIABP,HDMS_Triton,North
2021-09-09T19:59:57Z,1631217597,2021,20,0,252.8333,252.8333,78.26279,-16.24134,1013.6,-999.00,-999.0,yes,no,no,300534061610450,ITB-19,USIABP,HDMS_Triton,North
2021-09-09T21:00:00Z,1631221200,2021,21,0,252.875,252.875,78.05504,-16.49522,1013.7,-999.00,-999.0,yes,no,no,300534061610450,ITB-19,USIABP,HDMS_Triton,North
2021-09-09T22:00:02Z,1631224803,2021,22,0,252.9167,252.9167,77.84535,-16.76914,1013.7,-999.00,-999.0,yes,no,no,300534061610450,ITB-19,USIABP,HDMS_Triton,North
2021-09-09T22:59:57Z,1631228397,2021,23,0,252.9583,252.9583,77.6345,-17.07853,1013.7,-999.00,-999.0,yes,no,no,300534061610450,ITB-19,USIABP,HDMS_Triton,North
2021-09-10T00:00:00Z,1631232000,2021,0,0,253.0,253.0,77.41647,-17.26259,1013.8,-999.00,-999.0,yes,no,no,300534061610450,ITB-19,USIABP,HDMS_Triton,North
2021-09-10T01:00:02Z,1631235603,2021,1,0,253.0417,253.0417,77.19639,-17.44006,1013.7,-999.00,-999.0,yes,no,no,300534061610450,ITB-19,USIABP,HDMS_Triton,North
2021-09-10T01:59:57Z,1631239197,2021,2,0,253.0833,253.0833,76.97441,-17.63184,1013.5,-999.00,-999.0,yes,no,no,300534061610450,ITB-19,USIABP,HDMS_Triton,North
2021-09-10T03:00:00Z,1631242800,2021,3,0,253.125,253.125,76.74969,-17.79054,1013.4,-999.00,-999.0,yes,no,no,300534061610450,ITB-19,USIABP,HDMS_Triton,North
2021-09-10T04:00:02Z,1631246403,2021,4,0,253.1667,253.1667,76.57999,-17.70103,1012.2,-999.00,-999.0,yes,no,no,300534061610450,ITB-19,USIABP,HDMS_Triton,North
2021-09-10T04:59:57Z,1631249997,2021,5,0,253.2083,253.2083,76.64636,-18.47196,1012.8,-999.00,-999.0,yes,no,no,300534061610450,ITB-19,USIABP,HDMS_Triton,North
2021-09-10T06:00:00Z,1631253600,2021,6,0,253.25,253.25,76.74815,-18.70008,1012.9,-999.00,-999.0,yes,no,no,300534061610450,ITB-19,USIABP,HDMS_Triton,North
2021-09-10T07:00:02Z,1631257203,2021,7,0,253.2917,253.2917,76.69406,-18.64975,1014.6,-999.00,-999.0,yes,no,no,300534061610450,ITB-19,USIABP,HDMS_Triton,North
2021-09-10T07:59:57Z,1631260797,2021,8,0,253.3333,253.3333,76.70493,-18.68019,1014.7,-999.00,-999.0,yes,no,no,300534061610450,ITB-19,USIABP,HDMS_Triton,North
2021-09-10T09:00:00Z,1631264400,2021,9,0,253.375,253.375,76.76302,-18.67831,1013.7,-999.00,-999.0,yes,no,no,300534061610450,ITB-19,USIABP,HDMS_Triton,North
2021-09-10T10:00:02Z,1631268003,2021,10,0,253.4167,253.4167,76.70566,-18.67919,1016.0,-999.00,-999.0,yes,no,no,300534061610450,ITB-19,USIABP,HDMS_Triton,North
2021-09-10T10:59:57Z,1631271597,2021,11,0,253.4583,253.4583,76.75197,-18.6859,1015.7,-999.00,-999.0,yes,no,no,300534061610450,ITB-19,USIABP,HDMS_Triton,North
2021-09-10T12:00:00Z,1631275200,2021,12,0,253.5,253.5,76.74407,-19.35038,1016.0,-999.00,-999.0,yes,no,no,300534061610450,ITB-19,USIABP,HDMS_Triton,North
2021-09-10T13:00:02Z,1631278803,2021,13,0,253.5417,253.5417,76.85683,-19.57331,1016.0,-999.00,-999.0,yes,no,no,300534061610450,ITB-19,USIABP,HDMS_Triton,North
2021-09-10T13:59:57Z,1631282397,2021,14,0,253.5833,253.5833,76.90797,-20.03896,1016.0,-999.00,-999.0,yes,no,no,300534061610450,ITB-19,USIABP,HDMS_Triton,North
2021-09-10T15:00:00Z,1631286000,2021,15,0,253.625,253.625,76.90763,-20.03749,1015.9,-999.00,-999.0,yes,no,no,300534061610450,ITB-19,USIABP,HDMS_Triton,North
2021-09-10T16:00:02Z,1631289603,2021,16,0,253.6667,253.6667,76.90786,-20.03599,1015.4,-999.00,-999.0,yes,no,no,300534061610450,ITB-19,USIABP,HDMS_Triton,North
2021-09-10T16:59:57Z,1631293197,2021,17,0,253.7083,253.7083,76.9074,-20.04228,1015.0,-999.00,-999.0,yes,no,no,300534061610450,ITB-19,USIABP,HDMS_Triton,North
2021-09-10T18:00:00Z,1631296800,2021,18,0,253.75,253.75,76.90758,-20.03589,1015.5,-999.00,-999.0,yes,no,no,300534061610450,ITB-19,USIABP,HDMS_Triton,North
2021-09-10T19:00:02Z,1631300403,2021,19,0,253.7917,253.7917,76.90725,-20.03662,1016.1,-999.00,-999.0,yes,no,no,300534061610450,ITB-19,USIABP,HDMS_Triton,North
2021-09-10T19:59:57Z,1631303997,2021,20,0,253.8333,253.8333,76.90719,-20.03819,1015.7,-999.00,-999.0,yes,no,no,300534061610450,ITB-19,USIABP,HDMS_Triton,North
2021-09-10T21:00:00Z,1631307600,2021,21,0,253.875,253.875,76.90732,-20.04263,1016.0,-999.00,-999.0,yes,no,no,300534061610450,ITB-19,USIABP,HDMS_Triton,North
2021-09-10T22:00:02Z,1631311203,2021,22,0,253.9167,253.9167,76.90753,-20.0361,1015.8,-999.00,-999.0,yes,no,no,300534061610450,ITB-19,USIABP,HDMS_Triton,North
2021-09-10T22:59:57Z,1631314797,2021,23,0,253.9583,253.9583,76.90714,-20.03687,1015.6,-999.00,-999.0,yes,no,no,300534061610450,ITB-19,USIABP,HDMS_Triton,North
2021-09-11T00:00:00Z,1631318400,2021,0,0,254.0,254.0,76.90701,-20.03949,1014.6,-999.00,-999.0,yes,no,no,300534061610450,ITB-19,USIABP,HDMS_Triton,North
2021-09-11T01:00:02Z,1631322003,2021,1,0,254.0417,254.0417,76.90694,-20.03845,1016.0,-999.00,-999.0,yes,no,no,300534061610450,ITB-19,USIABP,HDMS_Triton,North
2021-09-11T01:59:57Z,1631325597,2021,2,0,254.0833,254.0833,76.90706,-20.04378,1015.8,-999.00,-999.0,yes,no,no,300534061610450,ITB-19,USIABP,HDMS_Triton,North
2021-09-11T03:00:00Z,1631329200,2021,3,0,254.125,254.125,76.9068,-20.03922,1015.3,-999.00,-999.0,yes,no,no,300534061610450,ITB-19,USIABP,HDMS_Triton,North
2021-09-11T04:00:02Z,1631332803,2021,4,0,254.1667,254.1667,76.90694,-20.03821,1016.1,-999.00,-999.0,yes,no,no,300534061610450,ITB-19,USIABP,HDMS_Triton,North
2021-09-11T04:59:57Z,1631336397,2021,5,0,254.2083,254.2083,76.9068,-20.03742,1017.0,-999.00,-999.0,yes,no,no,300534061610450,ITB-19,USIABP,HDMS_Triton,North
2021-09-11T06:00:00Z,1631340000,2021,6,0,254.25,254.25,76.90564,-20.05475,1017.2,-999.00,-999.0,yes,no,no,300534061610450,ITB-19,USIABP,HDMS_Triton,North
2021-09-11T07:00:02Z,1631343603,2021,7,0,254.2917,254.2917,76.90669,-20.03774,1017.5,-999.00,-999.0,yes,no,no,300534061610450,ITB-19,USIABP,HDMS_Triton,North
2021-09-11T07:59:57Z,1631347197,2021,8,0,254.3333,254.3333,76.90696,-20.03826,1017.7,-999.00,-999.0,yes,no,no,300534061610450,ITB-19,USIABP,HDMS_Triton,North
2021-09-11T09:00:00Z,1631350800,2021,9,0,254.375,254.375,76.90693,-20.04131,1018.2,-999.00,-999.0,yes,no,no,300534061610450,ITB-19,USIABP,HDMS_Triton,North
2021-09-11T10:00:02Z,1631354403,2021,10,0,254.4167,254.4167,76.9071,-20.04123,1018.4,-999.00,-999.0,yes,no,no,300534061610450,ITB-19,USIABP,HDMS_Triton,North
2021-09-11T10:59:57Z,1631357997,2021,11,0,254.4583,254.4583,76.90021,-20.0509,1019.0,-999.00,-999.0,yes,no,no,300534061610450,ITB-19,USIABP,HDMS_Triton,North
2021-09-11T12:00:00Z,1631361600,2021,12,0,254.5,254.5,76.72203,-20.07355,1019.1,-999.00,-999.0,yes,no,no,300534061610450,ITB-19,USIABP,HDMS_Triton,North
2021-09-11T13:00:02Z,1631365203,2021,13,0,254.5417,254.5417,76.46268,-19.80571,1018.9,-999.00,-999.0,yes,no,no,300534061610450,ITB-19,USIABP,HDMS_Triton,North
2021-09-11T13:59:57Z,1631368797,2021,14,0,254.5833,254.5833,76.36615,-20.47379,1019.4,-999.00,-999.0,yes,no,no,300534061610450,ITB-19,USIABP,HDMS_Triton,North
2021-09-11T15:00:00Z,1631372400,2021,15,0,254.625,254.625,76.38206,-20.88363,1019.7,-999.00,-999.0,yes,no,no,300534061610450,ITB-19,USIABP,HDMS_Triton,North
2021-09-11T16:00:02Z,1631376003,2021,16,0,254.6667,254.6667,76.38216,-20.88379,1019.2,-999.00,-999.0,yes,no,no,300534061610450,ITB-19,USIABP,HDMS_Triton,North
2021-09-11T16:59:57Z,1631379597,2021,17,0,254.7083,254.7083,76.38231,-20.88366,1018.3,-999.00,-999.0,yes,no,no,300534061610450,ITB-19,USIABP,HDMS_Triton,North